CZ-4C DEB, 38325

Orbit data source: Space-Track

CZ-4C DEB, 38325 is space debris in SSO originally from a launch on Tue, 15 Dec 2009 UTC launched from the Taiyaun Space Center, China (TSC). Debris objects in space refer to the collection of defunct objects orbiting the Earth. Examples of debris include non-operational satellites, rocket bodies, and fragments generated from explosions, collisions, or faulty payload assembly.

Loading next visibility...
Identifier
38325, 2009-072D
Orbit
SSO
Last TLE update
6 days ago
Origin
Manufacturer
Unknown
Mission
Spacecraft
Bus & Motor
Unknown
Mass
Unknown
Launch date (UTC)
2009-12-15 (15 years ago)
Launch vehicle
Unknown
Launch site
Taiyaun Space Center, China (TSC)
Object type
Payload
Rocket body
Debris
Shape & HBR
Unknown
Radar Cross Section
Small (<0.1 m²)

Expand to show TLE details & history

TLE from 6 days ago
0 CZ-4C DEB
1 38325U 09072D   25125.25213145 -.00000004  00000-0  69405-4 0  9990
2 38325 100.5222 130.2095 0156659 202.0598 224.4901 13.46273172584424
Epoch: 2025-05-05T06:03Z
Definitive object data (Epoch: 2025-05-05T06:03:04.157Z)
Latitude
63.37966°
Longitude
154.43775°
Altitude
1,181.106 km
Speed
7.228 km/s
True Right ascension
07h 14m 17s
True Declination
63° 14' 58"
Sunlit
Object was in daylight at TLE epoch
Visualization TLE readout
Latitude
42.27698°
Longitude
12.30646°
Altitude
1,016.055 km
Speed
7.385 km/s
Apparent Right ascension
01h 53m 16s
Apparent Declination
26° 25' 30"
Sunlit
Object is in daylight
Visualization observer readout
Local Sidereal Time
20:31:18
Azimuth
74.411° E
Elevation
23.516°
Doppler factor
1
Orbital elements
Apogee altitude
1,200.242 km
Perigee altitude
966.46 km
Semi-major axis
7,461.488 km
Eccentricity
0.0156659
Inclination
100.5222°
RAAN
130.2095°
Arg. of periapsis
202.0598°
True anomaly
223.2495°
Mean anomaly
224.4901°
Eccentric anomaly
223.86807°
Mean motion
3.36748 °/min
BSTAR
0.000069405
Orbital period
106.9 mins
Loading maneuver chart data...
Loading SW <> Apogee altitude chart data...
Loading historical data...
Loading historical data...
Loading historical data...
Loading historical data...
Loading historical data...
Loading historical data...
Loading historical data...

CZ-4C DEB Visibility forecast

Observer location: undefined°, undefined°

Span
Click to sort rows by Start time (UTC) header in descending order
Start Az.
Max El. time (UTC)
Max El. Az.
Max El.
End time (UTC)
End Az.
6 mins2025-05-11 12:13:38.299Z74.731° E2025-05-11 12:14:38.299Z89° E23.09°2025-05-11 12:19:38.299Z147.431° SSE
10 mins2025-05-11 13:55:38.299Z1.837° NNE2025-05-11 14:00:38.299Z293.409° NW36.972°2025-05-11 14:05:38.299Z223.189° SW
7 mins2025-05-11 22:26:38.299Z84.678° E2025-05-11 22:29:38.299Z55.711° ENE17.387°2025-05-11 22:33:38.299Z18.791° NNE
12 mins2025-05-12 00:08:38.299Z162.401° S2025-05-12 00:13:38.299Z164.47° S44.668°2025-05-12 00:20:38.299Z344.191° N
6 mins2025-05-12 01:57:38.299Z246.824° WSW2025-05-12 01:59:38.299Z265° W14.758°2025-05-12 02:03:38.299Z300.709° NW
|